• In Deutschland
  • Länderverzeichnis
  • Für 7 Tage
  • Wassertemperatur
  • Satellitenkarten
  • Wetterkarte
  • Widgets
  • user-avatar
    Anmelden

    Stündliche Wetter Kamp-Lintfort

    Heute, 17 Dezember, Sonntag

    Zeit Temperatur Niederschläge Wind Luftdruck Luftfeuchtigkeit
    00:00 0°C° 0,1 mm 4 m/S 760 mmHg 90%
    01:00 0°C° 0,1 mm 4 m/S 761 mmHg 91%
    02:00 +1°C° 0,1 mm 3 m/S 761 mmHg 91%
    03:00 +1°C° 0,1 mm 3 m/S 761 mmHg 92%
    04:00 0°C° 0 mm 3 m/S 762 mmHg 92%
    05:00 0°C° 0 mm 3 m/S 762 mmHg 93%
    06:00 0°C° 0 mm 3 m/S 762 mmHg 93%
    07:00 +1°C° 0 mm 2 m/S 763 mmHg 92%
    08:00 +1°C° 0 mm 2 m/S 763 mmHg 91%
    09:00 +1°C° 0 mm 2 m/S 764 mmHg 90%
    10:00 +2°C° 0 mm 2 m/S 764 mmHg 87%
    11:00 +3°C° 0 mm 2 m/S 764 mmHg 84%
    12:00 +4°C° 0 mm 2 m/S 765 mmHg 81%
    13:00 +4°C° 0 mm 2 m/S 765 mmHg 84%
    14:00 +3°C° 0 mm 2 m/S 765 mmHg 87%
    15:00 +3°C° 0 mm 2 m/S 765 mmHg 89%
    16:00 +2°C° 0 mm 3 m/S 765 mmHg 90%
    17:00 +1°C° 0 mm 3 m/S 765 mmHg 91%
    18:00 +1°C° 0 mm 3 m/S 765 mmHg 93%
    19:00 0°C° 0 mm 4 m/S 765 mmHg 90%
    20:00 0°C° 0 mm 4 m/S 765 mmHg 87%
    21:00 0°C° 0 mm 4 m/S 765 mmHg 84%
    22:00 0°C° 0,3 mm 5 m/S 764 mmHg 83%
    23:00 +1°C° 0,3 mm 5 m/S 764 mmHg 82%

    Morgen, 18 Dezember, Montag

    Zeit Temperatur Niederschläge Wind Luftdruck Luftfeuchtigkeit
    00:00 +1°C° 0,3 mm 6 m/S 763 mmHg 81%
    01:00 +1°C° 0,7 mm 5 m/S 763 mmHg 84%
    02:00 +1°C° 0,7 mm 5 m/S 762 mmHg 87%
    03:00 +2°C° 0,7 mm 5 m/S 762 mmHg 90%
    04:00 +3°C° 0,3 mm 4 m/S 762 mmHg 92%
    05:00 +3°C° 0,3 mm 4 m/S 762 mmHg 93%
    06:00 +4°C° 0,3 mm 4 m/S 762 mmHg 94%
    07:00 +4°C° 0 mm 4 m/S 763 mmHg 92%
    08:00 +4°C° 0 mm 4 m/S 763 mmHg 90%
    09:00 +4°C° 0 mm 4 m/S 764 mmHg 88%
    10:00 +4°C° 0 mm 4 m/S 764 mmHg 84%
    11:00 +5°C° 0 mm 4 m/S 764 mmHg 81%
    12:00 +6°C° 0 mm 4 m/S 765 mmHg 77%
    13:00 +5°C° 0 mm 4 m/S 765 mmHg 79%
    14:00 +5°C° 0 mm 3 m/S 766 mmHg 82%
    15:00 +4°C° 0 mm 3 m/S 766 mmHg 84%
    16:00 +4°C° 0 mm 3 m/S 767 mmHg 85%
    17:00 +4°C° 0 mm 2 m/S 768 mmHg 86%
    18:00 +4°C° 0 mm 2 m/S 768 mmHg 87%
    19:00 +4°C° 0 mm 2 m/S 769 mmHg 87%
    20:00 +4°C° 0 mm 2 m/S 769 mmHg 87%
    21:00 +5°C° 0 mm 1 m/S 770 mmHg 87%
    22:00 +4°C° 0 mm 1 m/S 770 mmHg 87%
    23:00 +4°C° 0 mm 1 m/S 770 mmHg 87%

    übermorgen, 19 Dezember, Dienstag

    Zeit Temperatur Niederschläge Wind Luftdruck Luftfeuchtigkeit
    00:00 +4°C° 0 mm 1 m/S 771 mmHg 88%
    01:00 +4°C° 0 mm 1 m/S 771 mmHg 89%
    02:00 +4°C° 0 mm 1 m/S 771 mmHg 90%
    03:00 +3°C° 0 mm 1 m/S 772 mmHg 91%
    04:00 +3°C° 0 mm 1 m/S 772 mmHg 92%
    05:00 +3°C° 0 mm 1 m/S 772 mmHg 93%
    06:00 +3°C° 0 mm 1 m/S 772 mmHg 94%
    07:00 +2°C° 0 mm 2 m/S 773 mmHg 94%
    08:00 +2°C° 0 mm 2 m/S 773 mmHg 94%
    09:00 +3°C° 0 mm 2 m/S 774 mmHg 95%
    10:00 +3°C° 0 mm 2 m/S 774 mmHg 93%
    11:00 +4°C° 0 mm 2 m/S 774 mmHg 91%
    12:00 +4°C° 0 mm 3 m/S 774 mmHg 89%
    13:00 +4°C° 0 mm 3 m/S 773 mmHg 90%
    14:00 +4°C° 0 mm 3 m/S 773 mmHg 92%
    15:00 +5°C° 0 mm 2 m/S 773 mmHg 94%
    16:00 +3°C° 0 mm 3 m/S 773 mmHg 94%
    17:00 +3°C° 0 mm 3 m/S 773 mmHg 95%
    18:00 +3°C° 0 mm 3 m/S 773 mmHg 95%
    19:00 +2°C° 0 mm 3 m/S 773 mmHg 95%
    20:00 +2°C° 0 mm 3 m/S 773 mmHg 94%
    21:00 +2°C° 0 mm 3 m/S 774 mmHg 94%
    22:00 +2°C° 0 mm 3 m/S 773 mmHg 94%
    23:00 +1°C° 0 mm 4 m/S 773 mmHg 94%

    20 Dezember, Mittwoch

    Zeit Temperatur Niederschläge Wind Luftdruck Luftfeuchtigkeit
    00:00 +1°C° 0 mm 4 m/S 773 mmHg 95%
    01:00 +1°C° 0 mm 4 m/S 773 mmHg 95%
    02:00 +3°C° 0 mm 4 m/S 773 mmHg 96%
    03:00 +3°C° 0 mm 3 m/S 773 mmHg 96%
    04:00 +4°C° 0 mm 3 m/S 772 mmHg 96%
    05:00 +4°C° 0 mm 3 m/S 772 mmHg 96%
    06:00 +4°C° 0 mm 3 m/S 772 mmHg 96%
    07:00 +4°C° 0,1 mm 3 m/S 772 mmHg 96%
    08:00 +5°C° 0,1 mm 3 m/S 773 mmHg 96%
    09:00 +5°C° 0,1 mm 3 m/S 773 mmHg 96%
    10:00 +5°C° 0,1 mm 3 m/S 773 mmHg 95%
    11:00 +5°C° 0,1 mm 3 m/S 772 mmHg 95%
    12:00 +5°C° 0,1 mm 3 m/S 772 mmHg 95%
    13:00 +7°C° 0,1 mm 3 m/S 772 mmHg 95%
    14:00 +7°C° 0,1 mm 3 m/S 772 mmHg 96%
    15:00 +7°C° 0,1 mm 3 m/S 772 mmHg 97%
    16:00 +7°C° 0 mm 3 m/S 772 mmHg 97%
    17:00 +7°C° 0 mm 3 m/S 772 mmHg 97%
    18:00 +7°C° 0 mm 3 m/S 772 mmHg 97%
    19:00 +8°C° 0 mm 3 m/S 772 mmHg 97%
    20:00 +7°C° 0 mm 4 m/S 772 mmHg 97%
    21:00 +7°C° 0 mm 4 m/S 772 mmHg 96%
    22:00 +7°C° 0 mm 4 m/S 772 mmHg 96%
    23:00 +7°C° 0 mm 4 m/S 772 mmHg 96%

    21 Dezember, Donnerstag

    Zeit Temperatur Niederschläge Wind Luftdruck Luftfeuchtigkeit
    00:00 +7°C° 0 mm 4 m/S 772 mmHg 96%
    01:00 +7°C° 0 mm 4 m/S 771 mmHg 95%
    02:00 +8°C° 0 mm 4 m/S 771 mmHg 95%
    03:00 +8°C° 0 mm 4 m/S 771 mmHg 95%
    04:00 +8°C° 0,1 mm 4 m/S 771 mmHg 95%
    05:00 +8°C° 0,1 mm 4 m/S 771 mmHg 94%
    06:00 +8°C° 0,1 mm 4 m/S 771 mmHg 94%
    07:00 +8°C° 0,3 mm 5 m/S 771 mmHg 94%
    08:00 +8°C° 0,3 mm 5 m/S 771 mmHg 93%
    09:00 +8°C° 0,3 mm 5 m/S 771 mmHg 93%
    10:00 +8°C° 0,1 mm 5 m/S 770 mmHg 92%
    11:00 +8°C° 0,1 mm 6 m/S 770 mmHg 91%
    12:00 +8°C° 0,1 mm 6 m/S 770 mmHg 90%
    13:00 +8°C° 0,1 mm 6 m/S 769 mmHg 89%
    14:00 +8°C° 0,1 mm 6 m/S 769 mmHg 89%
    15:00 +8°C° 0,1 mm 6 m/S 769 mmHg 89%
    16:00 +8°C° 0 mm 6 m/S 768 mmHg 88%
    17:00 +8°C° 0 mm 6 m/S 768 mmHg 88%
    18:00 +8°C° 0 mm 6 m/S 768 mmHg 88%
    19:00 +8°C° 0,1 mm 6 m/S 767 mmHg 87%
    20:00 +8°C° 0,1 mm 6 m/S 767 mmHg 86%
    21:00 +8°C° 0,1 mm 6 m/S 766 mmHg 86%
    22:00 +9°C° 0,4 mm 7 m/S 766 mmHg 87%
    23:00 +9°C° 0,4 mm 7 m/S 766 mmHg 88%

    22 Dezember, Freitag

    Zeit Temperatur Niederschläge Wind Luftdruck Luftfeuchtigkeit
    00:00 +9°C° 0,4 mm 7 m/S 765 mmHg 89%
    01:00 +8°C° 0,7 mm 7 m/S 766 mmHg 86%
    02:00 +6°C° 0,7 mm 7 m/S 767 mmHg 83%
    03:00 +5°C° 0,7 mm 7 m/S 768 mmHg 81%
    04:00 +5°C° 0 mm 6 m/S 769 mmHg 81%
    05:00 +5°C° 0 mm 5 m/S 770 mmHg 82%
    06:00 +5°C° 0 mm 4 m/S 772 mmHg 82%
    07:00 +5°C° 0 mm 4 m/S 772 mmHg 82%
    08:00 +5°C° 0 mm 4 m/S 773 mmHg 81%
    09:00 +5°C° 0 mm 4 m/S 774 mmHg 80%
    10:00 +5°C° 0 mm 5 m/S 774 mmHg 77%
    11:00 +6°C° 0 mm 5 m/S 775 mmHg 73%
    12:00 +7°C° 0 mm 6 m/S 775 mmHg 70%
    13:00 +6°C° 0 mm 5 m/S 775 mmHg 72%
    14:00 +6°C° 0 mm 5 m/S 775 mmHg 74%
    15:00 +6°C° 0 mm 4 m/S 775 mmHg 76%
    16:00 +5°C° 0 mm 4 m/S 776 mmHg 79%
    17:00 +5°C° 0 mm 5 m/S 776 mmHg 81%
    18:00 +5°C° 0 mm 5 m/S 776 mmHg 84%
    19:00 +5°C° 0 mm 5 m/S 776 mmHg 84%
    20:00 +5°C° 0 mm 5 m/S 776 mmHg 84%
    21:00 +5°C° 0 mm 5 m/S 776 mmHg 83%
    22:00 +5°C° 0 mm 5 m/S 776 mmHg 83%
    23:00 +3°C° 0 mm 5 m/S 775 mmHg 83%
    Mehr zeigen

    XHprof extension not loaded